Location: Home
(42.5358°N, 72.7383°W)
Time: 11:59:23
(UTC-05:00)

Transit 2A - All Passes

Search period start: 06 December 2021 00:00
Search period end: 16 December 2021 00:00
Orbit: 591 x 967 km, 66.7° (Epoch: 05 December)

Date Brightness Start Highest point End Pass type
(mag) Time Alt. Az. Time Alt. Az. Time Alt. Az.
06 Dec - 00:58:02 10° W 01:02:40 23° NW 01:07:33 10° N night (unlit)
06 Dec - 06:16:57 10° N 06:21:23 19° NE 06:25:44 10° E visible
06 Dec - 07:59:20 10° NNW 08:05:46 76° ENE 08:11:51 10° SE daylight
06 Dec - 09:44:01 10° WNW 09:48:18 19° WSW 09:52:26 10° SSW daylight
06 Dec - 22:39:05 10° S 22:44:30 55° ESE 22:50:28 10° NE night (unlit)
07 Dec - 00:23:04 10° WSW 00:28:07 30° NW 00:33:32 10° NNE night (unlit)
07 Dec - 05:43:06 10° N 05:46:43 15° NNE 05:50:18 10° ENE visible
07 Dec - 07:25:10 10° NNW 07:31:28 56° NE 07:37:26 10° SE daylight
07 Dec - 09:09:07 10° NW 09:14:21 28° WSW 09:19:19 10° SSW daylight
07 Dec - 22:05:19 10° S 22:10:26 38° ESE 22:16:00 10° NE night (unlit)
07 Dec - 23:48:17 10° WSW 23:53:39 39° NW 23:59:29 10° NNE night (unlit)
08 Dec - 01:36:45 10° NW 01:38:49 12° NNW 01:40:55 10° N night (unlit)
08 Dec - 05:09:25 10° N 05:12:00 12° NNE 05:14:34 10° NE visible
08 Dec - 06:51:02 10° NNW 06:57:05 42° NE 07:02:52 10° ESE daylight
08 Dec - 08:34:30 10° NW 08:40:19 39° WSW 08:45:49 10° S daylight
08 Dec - 21:31:49 10° SSE 21:36:25 27° ESE 21:41:23 10° NE night (unlit)
08 Dec - 23:13:41 10° SW 23:19:15 53° NW 23:25:22 10° NNE night (unlit)
09 Dec - 01:00:53 10° WNW 01:04:04 14° NNW 01:07:21 10° N night (unlit)
09 Dec - 04:36:30 10° NNE 04:37:13 10° NNE 04:37:55 10° NNE visible
09 Dec - 06:16:58 10° NNW 06:22:38 32° NE 06:28:05 10° ESE visible
09 Dec - 08:00:03 10° NW 08:06:14 55° WSW 08:12:04 10° S daylight
09 Dec - 20:58:42 10° SE 21:02:29 19° ESE 21:06:27 10° ENE night (unlit)
09 Dec - 22:39:17 10° SW 22:44:57 73° WNW 22:51:11 10° NNE night (unlit)
10 Dec - 00:25:25 10° WNW 00:29:23 18° NW 00:33:32 10° N night (unlit)
10 Dec - 05:42:56 10° NNW 05:48:07 25° NE 05:53:08 10° E visible
10 Dec - 07:25:42 10° NNW 07:32:05 76° WSW 07:38:05 10° SSE daylight
10 Dec - 09:12:02 10° WNW 09:14:12 12° W 09:16:19 10° WSW daylight
10 Dec - 20:26:23 10° ESE 20:28:36 12° E 20:30:52 10° ENE night (unlit)
10 Dec - 22:05:03 10° SSW 22:10:42 82° ESE 22:16:56 10° NNE night (unlit)
10 Dec - 23:50:12 10° W 23:54:46 23° NW 23:59:37 10° N night (unlit)
11 Dec - 05:08:58 10° N 05:13:32 20° NE 05:17:59 10° E visible
11 Dec - 06:51:26 10° NNW 06:57:52 80° ENE 07:03:54 10° SE daylight
11 Dec - 08:36:18 10° WNW 08:40:18 18° WSW 08:44:10 10° SW daylight
11 Dec - 21:31:01 10° SSW 21:36:32 59° ESE 21:42:36 10° NE night (unlit)
11 Dec - 23:15:12 10° WSW 23:20:14 29° NW 23:25:37 10° NNE night (unlit)
12 Dec - 04:35:06 10° N 04:38:53 16° NNE 04:42:36 10° ENE visible
12 Dec - 06:17:14 10° NNW 06:23:34 59° NE 06:29:31 10° SE visible
12 Dec - 08:01:20 10° NW 08:06:21 26° WSW 08:11:09 10° SSW daylight
12 Dec - 20:57:12 10° S 21:02:27 41° ESE 21:08:10 10° NE night (unlit)
12 Dec - 22:40:22 10° WSW 22:45:45 38° NW 22:51:34 10° NNE night (unlit)
13 Dec - 00:29:05 10° NW 00:30:59 11° NNW 00:32:52 10° N night (unlit)
13 Dec - 04:01:22 10° N 04:04:10 13° NNE 04:06:55 10° NE visible
13 Dec - 05:43:06 10° NNW 05:49:12 44° NE 05:54:58 10° ESE visible
13 Dec - 07:26:40 10° NW 07:32:22 36° WSW 07:37:43 10° S daylight
13 Dec - 20:23:39 10° SSE 20:28:25 29° ESE 20:33:34 10° NE night (unlit)
13 Dec - 22:05:45 10° SW 22:11:21 50° NW 22:17:27 10° NNE night (unlit)
13 Dec - 23:53:09 10° WNW 23:56:13 14° NNW 23:59:23 10° N night (unlit)
14 Dec - 03:28:09 10° NNE 03:29:23 11° NNE 03:30:37 10° NE visible
14 Dec - 05:09:00 10° NNW 05:14:45 34° NE 05:20:14 10° ESE visible
14 Dec - 06:52:11 10° NW 06:58:17 51° WSW 07:04:00 10° S daylight
14 Dec - 19:50:26 10° SSE 19:54:28 20° ESE 19:58:44 10° ENE night (unlit)
14 Dec - 21:31:17 10° SW 21:37:01 69° WNW 21:43:17 10° NNE night (unlit)
14 Dec - 23:17:38 10° WNW 23:21:32 17° NW 23:25:35 10° N night (unlit)
15 Dec - 04:34:58 10° NNW 04:40:15 26° NE 04:45:19 10° E visible
15 Dec - 06:17:49 10° NW 06:24:09 71° WSW 06:30:03 10° SSE visible
15 Dec - 08:04:50 10° W 08:06:11 11° W 08:07:30 10° WSW daylight
15 Dec - 19:17:51 10° SE 19:20:34 14° E 19:23:22 10° ENE night (unlit)
15 Dec - 20:57:01 10° SSW 21:02:46 87° ESE 21:09:02 10° NNE night (unlit)
15 Dec - 22:42:21 10° W 22:46:54 22° NW 22:51:40 10° N night (unlit)
